This demonstration page uses our WeatherBlox Daily Observations layout. Learn more.

Left ArrowRight Arrow

44.8408, -93.29828

Hourly Observations for January 25, 2022

Temp ( °F °C ) Dew Point ( °F °C ) Humidity (%) Winds ( mph kmh ) Pressure ( in mb ) Visibility ( mi km ) Precip ( " mm )
12:53 am 00:53 Clear -6 -21.1 -15 -26.1 64 64 NW 9 15 30.28 1025 10 16 0.00 0.00
1:53 am 01:53 Clear -7 -21.7 -16 -26.7 64 64 NW 8 13 30.29 1026 10 16 0.00 0.00
2:53 am 02:53 Clear -8 -22.2 -17 -27.2 64 64 NW 9 15 30.31 1027 10 16 0.00 0.00
3:53 am 03:53 Clear -10 -23.3 -18 -27.8 67 67 NW 9 15 30.32 1027 10 16 0.00 0.00
4:53 am 04:53 Clear -10 -23.3 -18 -27.8 67 67 NW 9 15 30.35 1028 10 16 0.00 0.00
5:53 am 05:53 Clear -11 -23.9 -18 -27.8 70 70 WNW 8 13 30.37 1028 10 16 0.00 0.00
6:53 am 06:53 Clear -11 -23.9 -17 -27.2 74 74 W 7 11 30.40 1029 10 16 0.00 0.00
7:53 am 07:53 Sunny -13 -25 -18 -27.8 78 78 WNW 6 9 30.42 1030 10 16 0.00 0.00
8:53 am 08:53 Sunny -9 -22.8 -15 -26.1 75 75 WNW 8 13 30.45 1031 10 16 0.00 0.00
9:53 am 09:53 Sunny -6 -21.1 -14 -25.6 67 67 NNW 10 17 30.46 1032 10 16 0.00 0.00
10:53 am 10:53 Sunny -3 -19.4 -14 -25.6 58 58 NNW 12 19 30.48 1032 10 16 0.00 0.00
11:53 am 11:53 Sunny -1 -18.3 -12 -24.4 59 59 NW 14 22 30.47 1032 10 16 0.00 0.00
12:53 pm 12:53 Sunny 0 -17.8 -11 -23.9 59 59 NW 13 20 30.45 1031 10 16 0.00 0.00
1:53 pm 13:53 Sunny 2 -16.7 -10 -23.3 57 57 NW 15 24 30.45 1031 10 16 0.00 0.00
2:53 pm 14:53 Sunny 4 -15.6 -10 -23.3 52 52 NW 12 19 30.45 1031 10 16 0.00 0.00
3:53 pm 15:53 Sunny 3 -16.1 -11 -23.9 51 51 NW 14 22 30.47 1032 10 16 0.00 0.00
4:53 pm 16:53 Sunny 1 -17.2 -12 -24.4 54 54 NW 10 17 30.50 1033 10 16 0.00 0.00
5:53 pm 17:53 Clear -1 -18.3 -13 -25 56 56 NW 10 17 30.52 1034 10 16 0.00 0.00
6:53 pm 18:53 Clear -3 -19.4 -13 -25 61 61 W 9 15 30.54 1034 10 16 0.00 0.00
7:53 pm 19:53 Clear -4 -20 -14 -25.6 61 61 W 8 13 30.55 1035 10 16 0.00 0.00
8:53 pm 20:53 Clear -5 -20.6 -15 -26.1 62 62 W 9 15 30.56 1035 10 16 0.00 0.00
9:53 pm 21:53 Clear -7 -21.7 -16 -26.7 64 64 W 7 11 30.55 1035 10 16 0.00 0.00
10:53 pm 22:53 Clear -8 -22.2 -16 -26.7 67 67 W 8 13 30.55 1034 10 16 0.00 0.00
11:53 pm 23:53 Clear -10 -23.3 -17 -27.2 70 70 WSW 3 6 30.54 1034 10 16 0.00 0.00

Powered by AerisWeather